STARLINK-35286, 65803

Orbit data source: Space-Track

STARLINK-35286, 65803 is a payload satellite owned by SpaceX/Seattle (US) in SSO that was launched on Fri, 26 Sep 2025 UTC via an FALCON 9 launch vehicle from the Air Force Western Test Range (AFWTR). Payload-class satellites include a variety of spacecraft equipped with specific instruments for various scientific and technological missions. These include communications satellites like Starlink; space stations such as the ISS; scientific satellites like the Hubble; Earth observation satellites from companies like Planet Labs, Umbra, and HawkEye 360; GPS; miniature CubeSats for education and research; and military/defense satellites.

Loading next visibility...
Identifier
65803, 2025-218N
Orbit
SSO
Country
Flag of USUS
Related business
Manufacturer
SpaceX/Seattle
Mission
Operational Commercial Communications
Bus & Motor
STARLINK V2MO, Unknown motor
Mass
575 kg wet, ~530 kg dry
Launch date (UTC)
2025-09-26 (5 months ago)
Launch vehicle
FALCON 9
Launch site
Air Force Western Test Range (AFWTR)
Object type
Payload
Rocket body
Debris
Shape & HBR
Box + 2 Pan, 17.7 m
Radar Cross Section
36.964 m²

Expand to show TLE details & history
Last TLE update: 9 hours ago

TLE from 9 hours ago
0 STARLINK-35286
1 65803U 25218N   26062.49181713  .00006005  00000-0  41991-3 0  9998
2 65803  97.6023 286.7901 0002072  93.5611 266.5853 15.05657431 24031
Epoch: 2026-03-03T11:48Z
TLE epoch observation values (Epoch: 2026-03-03T11:48:13.000Z)
Latitude
0.00003°
Longitude
-51.53418°
Altitude
552.639 km
Speed
7.585 km/s
True Right ascension
19h 07m 09s
True Declination
0° 00' 00"
Sunlit
Object was in daylight at epoch
Visualization orbit readout
Latitude
Unknown
Longitude
Unknown
Altitude
Unknown
Speed
Unknown
Apparent Right ascension
Unknown
Apparent Declination
Unknown
Sunlit
N/A
Visualization observer readout
Local Sidereal Time
00:36:10
Azimuth
Unknown
Elevation
Unknown
Doppler factor
Unknown
Orbital elements
Apogee altitude
547.917 km
Perigee altitude
545.047 km
Semi-major axis
6,924.619 km
Eccentricity
0.00021
Inclination
97.6023°
RAAN
286.7901°
Arg. of periapsis
93.5611°
True anomaly
266.5616°
Mean anomaly
266.5853°
Eccentric anomaly
266.57345°
Mean motion
3.7666 °/min
Orbital period
95.58 mins
BSTAR
0.00041991
Loading maneuver chart data...
Computing Atmospheric mass density...
Loading historical data...
Loading historical data...
Loading historical data...
Loading historical data...
Loading historical data...
Loading historical data...
Loading historical data...

Documentation

Showing up to 5 results
|